Year,Month,Day,Hour,Minute,Value (Times are PST for windspeed in km/hr)
2011,07,07,00,00,0.40
2011,07,07,00,01,0.20
2011,07,07,00,02,0.00
2011,07,07,00,03,0.00
2011,07,07,00,04,0.00
2011,07,07,00,05,0.20
2011,07,07,00,06,0.00
2011,07,07,00,07,0.00
2011,07,07,00,08,0.00
2011,07,07,00,09,0.00
2011,07,07,00,10,0.00
2011,07,07,00,11,0.50
2011,07,07,00,12,1.80
2011,07,07,00,13,0.10
2011,07,07,00,14,0.00
2011,07,07,00,15,0.00
2011,07,07,00,16,0.00
2011,07,07,00,17,0.10
2011,07,07,00,18,0.20
2011,07,07,00,19,0.00
2011,07,07,00,20,0.40
2011,07,07,00,21,1.40
2011,07,07,00,22,3.00
2011,07,07,00,23,0.50
2011,07,07,00,24,0.80
2011,07,07,00,25,1.20
2011,07,07,00,26,0.00
2011,07,07,00,27,0.00
2011,07,07,00,28,0.00
2011,07,07,00,29,0.30
2011,07,07,00,30,0.40
2011,07,07,00,31,0.00
2011,07,07,00,32,0.10
2011,07,07,00,33,0.00
2011,07,07,00,34,1.20
2011,07,07,00,35,3.10
2011,07,07,00,36,3.40
2011,07,07,00,37,2.20
2011,07,07,00,38,2.40
2011,07,07,00,39,4.80
2011,07,07,00,40,3.80
2011,07,07,00,41,3.10
2011,07,07,00,42,4.40
2011,07,07,00,43,3.70
2011,07,07,00,44,4.80
2011,07,07,00,45,4.50
2011,07,07,00,46,2.50
2011,07,07,00,47,4.10
2011,07,07,00,48,4.20
2011,07,07,00,49,4.80
2011,07,07,00,50,3.40
2011,07,07,00,51,5.50
2011,07,07,00,52,5.70
2011,07,07,00,53,6.50
2011,07,07,00,54,4.90
2011,07,07,00,55,6.20
2011,07,07,00,56,5.50
2011,07,07,00,57,4.50
2011,07,07,00,58,5.70
2011,07,07,00,59,5.30
2011,07,07,01,00,5.40
2011,07,07,01,01,4.50
2011,07,07,01,02,2.50
2011,07,07,01,03,3.60
2011,07,07,01,04,3.40
2011,07,07,01,05,4.40
2011,07,07,01,06,3.80
2011,07,07,01,07,4.10
2011,07,07,01,08,4.70
2011,07,07,01,09,4.80
2011,07,07,01,10,5.00
2011,07,07,01,11,4.50
2011,07,07,01,12,5.70
2011,07,07,01,13,3.00
2011,07,07,01,14,0.40
2011,07,07,01,15,0.40
2011,07,07,01,16,1.50
2011,07,07,01,17,1.70
2011,07,07,01,18,1.70
2011,07,07,01,19,3.20
2011,07,07,01,20,3.80
2011,07,07,01,21,4.10
2011,07,07,01,22,4.00
2011,07,07,01,23,4.50
2011,07,07,01,24,5.40
2011,07,07,01,25,1.40
2011,07,07,01,26,0.10
2011,07,07,01,27,1.50
2011,07,07,01,28,2.30
2011,07,07,01,29,1.60
2011,07,07,01,30,2.70
2011,07,07,01,31,2.50
2011,07,07,01,32,2.50
2011,07,07,01,33,1.70
2011,07,07,01,34,0.50
2011,07,07,01,35,0.10
2011,07,07,01,36,0.30
2011,07,07,01,37,1.20
2011,07,07,01,38,4.30
2011,07,07,01,39,4.90
2011,07,07,01,40,4.80
2011,07,07,01,41,5.30
2011,07,07,01,42,2.40
2011,07,07,01,43,0.90
2011,07,07,01,44,0.20
2011,07,07,01,45,1.20
2011,07,07,01,46,1.10
2011,07,07,01,47,1.20
2011,07,07,01,48,1.70
2011,07,07,01,49,1.50
2011,07,07,01,50,3.10
2011,07,07,01,51,3.40
2011,07,07,01,52,2.60
2011,07,07,01,53,0.80
2011,07,07,01,54,1.40
2011,07,07,01,55,0.70
2011,07,07,01,56,0.00
2011,07,07,01,57,0.00
2011,07,07,01,58,1.40
2011,07,07,01,59,0.20
2011,07,07,02,00,0.10
2011,07,07,02,01,0.00
2011,07,07,02,02,0.10
2011,07,07,02,03,0.00
2011,07,07,02,04,0.10
2011,07,07,02,05,0.50
2011,07,07,02,06,0.10
2011,07,07,02,07,0.10
2011,07,07,02,08,0.00
2011,07,07,02,09,0.10
2011,07,07,02,10,0.00
2011,07,07,02,11,1.20
2011,07,07,02,12,0.00
2011,07,07,02,13,0.00
2011,07,07,02,14,0.00
2011,07,07,02,15,0.10
2011,07,07,02,16,0.10
2011,07,07,02,17,0.50
2011,07,07,02,18,1.00
2011,07,07,02,19,2.10
2011,07,07,02,20,4.30
2011,07,07,02,21,4.50
2011,07,07,02,22,1.10
2011,07,07,02,23,2.20
2011,07,07,02,24,0.30
2011,07,07,02,25,1.50
2011,07,07,02,26,0.10
2011,07,07,02,27,0.10
2011,07,07,02,28,0.00
2011,07,07,02,29,0.20
2011,07,07,02,30,0.40
2011,07,07,02,31,2.70
2011,07,07,02,32,0.40
2011,07,07,02,33,3.70
2011,07,07,02,34,4.60
2011,07,07,02,35,3.90
2011,07,07,02,36,2.50
2011,07,07,02,37,2.00
2011,07,07,02,38,1.10
2011,07,07,02,39,2.90
2011,07,07,02,40,2.10
2011,07,07,02,41,0.10
2011,07,07,02,42,0.80
2011,07,07,02,43,0.00
2011,07,07,02,44,1.80
2011,07,07,02,45,0.00
2011,07,07,02,46,1.00
2011,07,07,02,47,1.10
2011,07,07,02,48,0.00
2011,07,07,02,49,0.00
2011,07,07,02,50,0.00
2011,07,07,02,51,0.10
2011,07,07,02,52,2.30
2011,07,07,02,53,1.30
2011,07,07,02,54,3.20
2011,07,07,02,55,3.90
2011,07,07,02,56,1.50
2011,07,07,02,57,4.20
2011,07,07,02,58,1.90
2011,07,07,02,59,2.10
2011,07,07,03,00,1.80
2011,07,07,03,01,4.40
2011,07,07,03,02,4.20
2011,07,07,03,03,2.00
2011,07,07,03,04,3.60
2011,07,07,03,05,2.10
2011,07,07,03,06,1.50
2011,07,07,03,07,3.50
2011,07,07,03,08,3.80
2011,07,07,03,09,4.50
2011,07,07,03,10,5.50
2011,07,07,03,11,5.70
2011,07,07,03,12,5.40
2011,07,07,03,13,4.40
2011,07,07,03,14,3.80
2011,07,07,03,15,3.80
2011,07,07,03,16,4.10
2011,07,07,03,17,3.10
2011,07,07,03,18,4.40
2011,07,07,03,19,4.50
2011,07,07,03,20,4.40
2011,07,07,03,21,3.00
2011,07,07,03,22,2.10
2011,07,07,03,23,4.40
2011,07,07,03,24,6.00
2011,07,07,03,25,4.70
2011,07,07,03,26,4.40
2011,07,07,03,27,5.10
2011,07,07,03,28,5.50
2011,07,07,03,29,5.30
2011,07,07,03,30,4.50
2011,07,07,03,31,4.80
2011,07,07,03,32,5.70
2011,07,07,03,33,6.40
2011,07,07,03,34,4.40
2011,07,07,03,35,3.80
2011,07,07,03,36,3.80
2011,07,07,03,37,4.90
2011,07,07,03,38,3.50
2011,07,07,03,39,3.80
2011,07,07,03,40,3.70
2011,07,07,03,41,1.90
2011,07,07,03,42,2.90
2011,07,07,03,43,1.70
2011,07,07,03,44,2.10
2011,07,07,03,45,4.30
2011,07,07,03,46,5.10
2011,07,07,03,47,4.50
2011,07,07,03,48,4.50
2011,07,07,03,49,4.70
2011,07,07,03,50,3.50
2011,07,07,03,51,3.30
2011,07,07,03,52,2.60
2011,07,07,03,53,4.20
2011,07,07,03,54,4.60
2011,07,07,03,55,3.70
2011,07,07,03,56,4.80
2011,07,07,03,57,5.20
2011,07,07,03,58,6.20
2011,07,07,03,59,4.90
2011,07,07,04,00,5.40
2011,07,07,04,01,2.50
2011,07,07,04,02,3.50
2011,07,07,04,03,2.00
2011,07,07,04,04,2.00
2011,07,07,04,05,4.50
2011,07,07,04,06,3.10
2011,07,07,04,07,4.60
2011,07,07,04,08,4.90
2011,07,07,04,09,4.70
2011,07,07,04,10,3.50
2011,07,07,04,11,4.80
2011,07,07,04,12,6.20
2011,07,07,04,13,3.50
2011,07,07,04,14,3.60
2011,07,07,04,15,4.30
2011,07,07,04,16,3.40
2011,07,07,04,17,6.20
2011,07,07,04,18,6.40
2011,07,07,04,19,4.50
2011,07,07,04,20,4.40
2011,07,07,04,21,2.20
2011,07,07,04,22,2.50
2011,07,07,04,23,4.00
2011,07,07,04,24,5.40
2011,07,07,04,25,3.60
2011,07,07,04,26,2.50
2011,07,07,04,27,3.20
2011,07,07,04,28,4.90
2011,07,07,04,29,3.90
2011,07,07,04,30,5.10
2011,07,07,04,31,3.60
2011,07,07,04,32,4.10
2011,07,07,04,33,4.40
2011,07,07,04,34,5.30
2011,07,07,04,35,3.50
2011,07,07,04,36,4.20
2011,07,07,04,37,4.40
2011,07,07,04,38,5.20
2011,07,07,04,39,5.60
2011,07,07,04,40,6.50
2011,07,07,04,41,4.90
2011,07,07,04,42,5.00
2011,07,07,04,43,5.10
2011,07,07,04,44,5.70
2011,07,07,04,45,3.40
2011,07,07,04,46,3.60
2011,07,07,04,47,5.40
2011,07,07,04,48,4.00
2011,07,07,04,49,1.90
2011,07,07,04,50,2.20
2011,07,07,04,51,3.70
2011,07,07,04,52,4.60
2011,07,07,04,53,4.30
2011,07,07,04,54,5.00
2011,07,07,04,55,3.70
2011,07,07,04,56,5.00
2011,07,07,04,57,4.80
2011,07,07,04,58,4.30
2011,07,07,04,59,3.10
2011,07,07,05,00,4.00
2011,07,07,05,01,3.90
2011,07,07,05,02,4.10
2011,07,07,05,03,2.70
2011,07,07,05,04,4.00
2011,07,07,05,05,4.60
2011,07,07,05,06,4.80
2011,07,07,05,07,2.70
2011,07,07,05,08,3.30
2011,07,07,05,09,3.40
2011,07,07,05,10,3.80
2011,07,07,05,11,4.50
2011,07,07,05,12,6.40
2011,07,07,05,13,4.10
2011,07,07,05,14,4.80
2011,07,07,05,15,5.10
2011,07,07,05,16,3.30
2011,07,07,05,17,1.70
2011,07,07,05,18,5.40
2011,07,07,05,19,3.10
2011,07,07,05,20,4.50
2011,07,07,05,21,5.00
2011,07,07,05,22,5.90
2011,07,07,05,23,3.30
2011,07,07,05,24,3.60
2011,07,07,05,25,1.70
2011,07,07,05,26,3.30
2011,07,07,05,27,3.60
2011,07,07,05,28,2.00
2011,07,07,05,29,3.80
2011,07,07,05,30,3.10
2011,07,07,05,31,3.80
2011,07,07,05,32,5.20
2011,07,07,05,33,3.40
2011,07,07,05,34,3.30
2011,07,07,05,35,3.50
2011,07,07,05,36,2.90
2011,07,07,05,37,4.40
2011,07,07,05,38,3.10
2011,07,07,05,39,1.50
2011,07,07,05,40,3.00
2011,07,07,05,41,3.40
2011,07,07,05,42,5.20
2011,07,07,05,43,1.60
2011,07,07,05,44,1.30
2011,07,07,05,45,3.10
2011,07,07,05,46,0.30
2011,07,07,05,47,1.30
2011,07,07,05,48,0.90
2011,07,07,05,49,0.40
2011,07,07,05,50,0.80
2011,07,07,05,51,1.10
2011,07,07,05,52,0.60
2011,07,07,05,53,1.40
2011,07,07,05,54,1.60
2011,07,07,05,55,0.20
2011,07,07,05,56,0.00
2011,07,07,05,57,1.20
2011,07,07,05,58,3.10
2011,07,07,05,59,0.70
2011,07,07,06,00,2.10
2011,07,07,06,01,0.70
2011,07,07,06,02,2.30
2011,07,07,06,03,0.70
2011,07,07,06,04,0.00
2011,07,07,06,05,1.00
2011,07,07,06,06,0.90
2011,07,07,06,07,1.10
2011,07,07,06,08,0.00
2011,07,07,06,09,0.00
2011,07,07,06,10,0.00
2011,07,07,06,11,0.00
2011,07,07,06,12,0.10
2011,07,07,06,13,0.00
2011,07,07,06,14,0.00
2011,07,07,06,15,0.00
2011,07,07,06,16,0.00
2011,07,07,06,17,0.00
2011,07,07,06,18,0.00
2011,07,07,06,19,0.00
2011,07,07,06,20,0.00
2011,07,07,06,21,0.00
2011,07,07,06,22,0.00
2011,07,07,06,23,0.00
2011,07,07,06,24,0.00
2011,07,07,06,25,0.00
2011,07,07,06,26,0.00
2011,07,07,06,27,0.00
2011,07,07,06,28,0.00
2011,07,07,06,29,0.10
2011,07,07,06,30,0.10
2011,07,07,06,31,0.10
2011,07,07,06,32,0.10
2011,07,07,06,33,0.10
2011,07,07,06,34,0.40
2011,07,07,06,35,2.20
2011,07,07,06,36,1.30
2011,07,07,06,37,0.50
2011,07,07,06,38,0.00
2011,07,07,06,39,0.00
2011,07,07,06,40,0.00
2011,07,07,06,41,0.00
2011,07,07,06,42,0.00
2011,07,07,06,43,0.00
2011,07,07,06,44,0.20
2011,07,07,06,45,0.40
2011,07,07,06,46,3.90
2011,07,07,06,47,4.90
2011,07,07,06,48,5.10
2011,07,07,06,49,6.40
2011,07,07,06,50,4.90
2011,07,07,06,51,4.00
2011,07,07,06,52,5.30
2011,07,07,06,53,5.70
2011,07,07,06,54,4.30
2011,07,07,06,55,2.40
2011,07,07,06,56,3.80
2011,07,07,06,57,4.10
2011,07,07,06,58,10.30
2011,07,07,06,59,6.30
2011,07,07,07,00,7.80
2011,07,07,07,01,4.90
2011,07,07,07,02,8.50
2011,07,07,07,03,8.40
2011,07,07,07,04,8.30
2011,07,07,07,05,7.50
2011,07,07,07,06,7.20
2011,07,07,07,07,6.10
2011,07,07,07,08,6.70
2011,07,07,07,09,8.30
2011,07,07,07,10,7.20
2011,07,07,07,11,6.20
2011,07,07,07,12,5.20
2011,07,07,07,13,8.90
2011,07,07,07,14,8.90
2011,07,07,07,15,7.00
2011,07,07,07,16,7.10
2011,07,07,07,17,5.70
2011,07,07,07,18,7.70
2011,07,07,07,19,6.20
2011,07,07,07,20,9.20
2011,07,07,07,21,7.40
2011,07,07,07,22,10.10
2011,07,07,07,23,9.00
2011,07,07,07,24,8.50
2011,07,07,07,25,10.70
2011,07,07,07,26,10.70
2011,07,07,07,27,8.50
2011,07,07,07,28,7.60
2011,07,07,07,29,7.40
2011,07,07,07,30,7.30
2011,07,07,07,31,8.00
2011,07,07,07,32,6.90
2011,07,07,07,33,10.60
2011,07,07,07,34,11.30
2011,07,07,07,35,9.10
2011,07,07,07,36,8.10
2011,07,07,07,37,13.10
2011,07,07,07,38,7.80
2011,07,07,07,39,8.60
2011,07,07,07,40,8.80
2011,07,07,07,41,9.20
2011,07,07,07,42,8.90
2011,07,07,07,43,12.30
2011,07,07,07,44,9.20
2011,07,07,07,45,8.30
2011,07,07,07,46,6.30
2011,07,07,07,47,9.70
2011,07,07,07,48,7.90
2011,07,07,07,49,7.70
2011,07,07,07,50,7.10
2011,07,07,07,51,11.70
2011,07,07,07,52,8.50
2011,07,07,07,53,5.90
2011,07,07,07,54,5.50
2011,07,07,07,55,5.00
2011,07,07,07,56,5.00
2011,07,07,07,57,7.40
2011,07,07,07,58,9.10
2011,07,07,07,59,8.10
2011,07,07,08,00,8.00
2011,07,07,08,01,7.60
2011,07,07,08,02,8.80
2011,07,07,08,03,6.50
2011,07,07,08,04,8.30
2011,07,07,08,05,12.50
2011,07,07,08,06,8.30
2011,07,07,08,07,7.30
2011,07,07,08,08,8.10
2011,07,07,08,09,8.10
2011,07,07,08,10,7.00
2011,07,07,08,11,4.40
2011,07,07,08,12,6.70
2011,07,07,08,13,3.40
2011,07,07,08,14,7.50
2011,07,07,08,15,7.80
2011,07,07,08,16,10.80
2011,07,07,08,17,8.80
2011,07,07,08,18,7.00
2011,07,07,08,19,9.10
2011,07,07,08,20,6.70
2011,07,07,08,21,8.00
2011,07,07,08,22,6.60
2011,07,07,08,23,7.60
2011,07,07,08,24,6.10
2011,07,07,08,25,8.70
2011,07,07,08,26,11.50
2011,07,07,08,27,7.30
2011,07,07,08,28,9.80
2011,07,07,08,29,6.10
2011,07,07,08,30,5.70
2011,07,07,08,31,7.20
2011,07,07,08,32,11.40
2011,07,07,08,33,9.10
2011,07,07,08,34,6.60
2011,07,07,08,35,7.10
2011,07,07,08,36,5.00
2011,07,07,08,37,10.10
2011,07,07,08,38,10.90
2011,07,07,08,39,9.70
2011,07,07,08,40,11.50
2011,07,07,08,41,8.30
2011,07,07,08,42,7.00
2011,07,07,08,43,11.90
2011,07,07,08,44,11.00
2011,07,07,08,45,12.80
2011,07,07,08,46,8.70
2011,07,07,08,47,8.20
2011,07,07,08,48,7.80
2011,07,07,08,49,8.30
2011,07,07,08,50,9.70
2011,07,07,08,51,9.40
2011,07,07,08,52,12.10
2011,07,07,08,53,4.80
2011,07,07,08,54,6.40
2011,07,07,08,55,7.80
2011,07,07,08,56,10.80
2011,07,07,08,57,9.70
2011,07,07,08,58,10.50
2011,07,07,08,59,9.90
2011,07,07,09,00,10.50
2011,07,07,09,01,9.10
2011,07,07,09,02,16.20
2011,07,07,09,03,14.10
2011,07,07,09,04,8.60
2011,07,07,09,05,16.00
2011,07,07,09,06,10.60
2011,07,07,09,07,10.20
2011,07,07,09,08,14.30
2011,07,07,09,09,11.80
2011,07,07,09,10,13.70
2011,07,07,09,11,12.90
2011,07,07,09,12,12.90
2011,07,07,09,13,12.30
2011,07,07,09,14,9.90
2011,07,07,09,15,7.30
2011,07,07,09,16,10.80
2011,07,07,09,17,9.00
2011,07,07,09,18,8.80
2011,07,07,09,19,9.50
2011,07,07,09,20,13.10
2011,07,07,09,21,14.30
2011,07,07,09,22,9.80
2011,07,07,09,23,9.00
2011,07,07,09,24,9.20
2011,07,07,09,25,11.30
2011,07,07,09,26,8.50
2011,07,07,09,27,11.50
2011,07,07,09,28,7.20
2011,07,07,09,29,9.80
2011,07,07,09,30,11.50
2011,07,07,09,31,8.80
2011,07,07,09,32,7.10
2011,07,07,09,33,5.50
2011,07,07,09,34,8.90
2011,07,07,09,35,10.30
2011,07,07,09,36,8.80
2011,07,07,09,37,7.30
2011,07,07,09,38,9.70
2011,07,07,09,39,8.40
2011,07,07,09,40,7.90
2011,07,07,09,41,10.60
2011,07,07,09,42,12.40
2011,07,07,09,43,10.90
2011,07,07,09,44,9.90
2011,07,07,09,45,11.70
2011,07,07,09,46,15.20
2011,07,07,09,47,11.50
2011,07,07,09,48,15.00
2011,07,07,09,49,10.90
2011,07,07,09,50,12.90
2011,07,07,09,51,13.00
2011,07,07,09,52,13.70
2011,07,07,09,53,6.10
2011,07,07,09,54,15.00
2011,07,07,09,55,10.40
2011,07,07,09,56,8.80
2011,07,07,09,57,5.70
2011,07,07,09,58,11.30
2011,07,07,09,59,9.60
2011,07,07,10,00,12.80
2011,07,07,10,01,8.00
2011,07,07,10,02,14.30
2011,07,07,10,03,7.00
2011,07,07,10,04,9.40
2011,07,07,10,05,11.20
2011,07,07,10,06,12.00
2011,07,07,10,07,9.40
2011,07,07,10,08,12.00
2011,07,07,10,09,12.30
2011,07,07,10,10,14.20
2011,07,07,10,11,11.70
2011,07,07,10,12,14.60
2011,07,07,10,13,9.40
2011,07,07,10,14,12.10
2011,07,07,10,15,11.80
2011,07,07,10,16,10.00
2011,07,07,10,17,10.50
2011,07,07,10,18,16.50
2011,07,07,10,19,10.70
2011,07,07,10,20,9.10
2011,07,07,10,21,8.60
2011,07,07,10,22,8.00
2011,07,07,10,23,14.10
2011,07,07,10,24,10.10
2011,07,07,10,25,9.90
2011,07,07,10,26,11.80
2011,07,07,10,27,12.40
2011,07,07,10,28,5.20
2011,07,07,10,29,6.20
2011,07,07,10,30,16.00
2011,07,07,10,31,12.80
2011,07,07,10,32,15.80
2011,07,07,10,33,10.60
2011,07,07,10,34,13.70
2011,07,07,10,35,9.70
2011,07,07,10,36,11.90
2011,07,07,10,37,13.70
2011,07,07,10,38,11.00
2011,07,07,10,39,15.20
2011,07,07,10,40,11.60
2011,07,07,10,41,14.90
2011,07,07,10,42,11.40
2011,07,07,10,43,7.40
2011,07,07,10,44,5.00
2011,07,07,10,45,6.50
2011,07,07,10,46,7.40
2011,07,07,10,47,16.40
2011,07,07,10,48,11.80
2011,07,07,10,49,17.30
2011,07,07,10,50,17.00
2011,07,07,10,51,18.30
2011,07,07,10,52,18.10
2011,07,07,10,53,11.60
2011,07,07,10,54,19.40
2011,07,07,10,55,12.50
2011,07,07,10,56,17.10
2011,07,07,10,57,14.80
2011,07,07,10,58,15.90
2011,07,07,10,59,10.30
2011,07,07,11,00,9.20
2011,07,07,11,01,13.90
2011,07,07,11,02,12.90
2011,07,07,11,03,7.70
2011,07,07,11,04,10.70
2011,07,07,11,05,13.60
2011,07,07,11,06,13.80
2011,07,07,11,07,14.00
2011,07,07,11,08,13.70
2011,07,07,11,09,17.20
2011,07,07,11,10,14.60
2011,07,07,11,11,17.70
2011,07,07,11,12,12.10
2011,07,07,11,13,14.00
2011,07,07,11,14,12.80
2011,07,07,11,15,12.70
2011,07,07,11,16,16.80
2011,07,07,11,17,19.90
2011,07,07,11,18,12.30
2011,07,07,11,19,13.50
2011,07,07,11,20,11.50
2011,07,07,11,21,12.60
2011,07,07,11,22,15.50
2011,07,07,11,23,15.50
2011,07,07,11,24,19.20
2011,07,07,11,25,13.60
2011,07,07,11,26,13.40
2011,07,07,11,27,12.70
2011,07,07,11,28,11.10
2011,07,07,11,29,11.50
2011,07,07,11,30,7.90
2011,07,07,11,31,8.90
2011,07,07,11,32,15.70
2011,07,07,11,33,17.80
2011,07,07,11,34,21.10
2011,07,07,11,35,17.80
2011,07,07,11,36,19.20
2011,07,07,11,37,16.80
2011,07,07,11,38,6.30
2011,07,07,11,39,4.80
2011,07,07,11,40,8.00
2011,07,07,11,41,5.80
2011,07,07,11,42,14.30
2011,07,07,11,43,16.20
2011,07,07,11,44,18.80
2011,07,07,11,45,20.90
2011,07,07,11,46,18.70
2011,07,07,11,47,11.90
2011,07,07,11,48,15.10
2011,07,07,11,49,15.70
2011,07,07,11,50,19.50
2011,07,07,11,51,18.90
2011,07,07,11,52,18.40
2011,07,07,11,53,17.90
2011,07,07,11,54,20.50
2011,07,07,11,55,16.60
2011,07,07,11,56,19.80
2011,07,07,11,57,14.10
2011,07,07,11,58,13.90
2011,07,07,11,59,14.80
2011,07,07,12,00,18.10
2011,07,07,12,01,17.40
2011,07,07,12,02,14.10
2011,07,07,12,03,16.50
2011,07,07,12,04,14.10
2011,07,07,12,05,16.50
2011,07,07,12,06,13.50
2011,07,07,12,07,11.70
2011,07,07,12,08,17.90
2011,07,07,12,09,17.50
2011,07,07,12,10,18.50
2011,07,07,12,11,19.50
2011,07,07,12,12,16.70
2011,07,07,12,13,13.20
2011,07,07,12,14,22.10
2011,07,07,12,15,20.00
2011,07,07,12,16,19.20
2011,07,07,12,17,15.20
2011,07,07,12,18,19.70
2011,07,07,12,19,21.60
2011,07,07,12,20,12.70
2011,07,07,12,21,19.10
2011,07,07,12,22,23.20
2011,07,07,12,23,21.60
2011,07,07,12,24,19.90
2011,07,07,12,25,25.30
2011,07,07,12,26,21.30
2011,07,07,12,27,19.20
2011,07,07,12,28,25.70
2011,07,07,12,29,10.60
2011,07,07,12,30,17.30
2011,07,07,12,31,20.20
2011,07,07,12,32,18.50
2011,07,07,12,33,27.70
2011,07,07,12,34,24.90
2011,07,07,12,35,28.30
2011,07,07,12,36,26.80
2011,07,07,12,37,22.60
2011,07,07,12,38,22.00
2011,07,07,12,39,18.30
2011,07,07,12,40,19.20
2011,07,07,12,41,17.20
2011,07,07,12,42,12.90
2011,07,07,12,43,23.10
2011,07,07,12,44,20.50
2011,07,07,12,45,14.30
2011,07,07,12,46,19.30
2011,07,07,12,47,16.60
2011,07,07,12,48,22.00
2011,07,07,12,49,20.60
2011,07,07,12,50,20.20
2011,07,07,12,51,19.30
2011,07,07,12,52,19.40
2011,07,07,12,53,21.50
2011,07,07,12,54,21.60
2011,07,07,12,55,22.40
2011,07,07,12,56,18.30
2011,07,07,12,57,14.80
2011,07,07,12,58,22.90
2011,07,07,12,59,26.30
2011,07,07,13,00,15.00
2011,07,07,13,01,19.80
2011,07,07,13,02,21.50
2011,07,07,13,03,20.90
2011,07,07,13,04,21.50
2011,07,07,13,05,19.20
2011,07,07,13,06,23.80
2011,07,07,13,07,22.70
2011,07,07,13,08,16.70
2011,07,07,13,09,20.10
2011,07,07,13,10,26.20
2011,07,07,13,11,22.60
2011,07,07,13,12,19.30
2011,07,07,13,13,16.80
2011,07,07,13,14,20.10
2011,07,07,13,15,21.70
2011,07,07,13,16,22.30
2011,07,07,13,17,25.90
2011,07,07,13,18,20.70
2011,07,07,13,19,22.80
2011,07,07,13,20,18.70
2011,07,07,13,21,21.30
2011,07,07,13,22,25.90
2011,07,07,13,23,27.10
2011,07,07,13,24,20.60
2011,07,07,13,25,22.00
2011,07,07,13,26,20.30
2011,07,07,13,27,16.60
2011,07,07,13,28,21.50
2011,07,07,13,29,24.10
2011,07,07,13,30,21.40
2011,07,07,13,31,24.30
2011,07,07,13,32,28.10
2011,07,07,13,33,22.90
2011,07,07,13,34,30.70
2011,07,07,13,35,25.20
2011,07,07,13,36,22.40
2011,07,07,13,37,29.60
2011,07,07,13,38,25.30
2011,07,07,13,39,26.00
2011,07,07,13,40,26.00
2011,07,07,13,41,23.70
2011,07,07,13,42,30.70
2011,07,07,13,43,22.30
2011,07,07,13,44,28.20
2011,07,07,13,45,24.40
2011,07,07,13,46,27.70
2011,07,07,13,47,27.10
2011,07,07,13,48,25.70
2011,07,07,13,49,24.50
2011,07,07,13,50,31.70
2011,07,07,13,51,24.30
2011,07,07,13,52,19.70
2011,07,07,13,53,24.30
2011,07,07,13,54,28.10
2011,07,07,13,55,25.50
2011,07,07,13,56,28.20
2011,07,07,13,57,18.00
2011,07,07,13,58,27.00
2011,07,07,13,59,25.80
2011,07,07,14,00,27.70
2011,07,07,14,01,22.40
2011,07,07,14,02,28.40
2011,07,07,14,03,25.00
2011,07,07,14,04,22.90
2011,07,07,14,05,23.30
2011,07,07,14,06,23.10
2011,07,07,14,07,24.90
2011,07,07,14,08,24.20
2011,07,07,14,09,26.20
2011,07,07,14,10,18.70
2011,07,07,14,11,30.80
2011,07,07,14,12,25.80
2011,07,07,14,13,22.60
2011,07,07,14,14,22.50
2011,07,07,14,15,18.60
2011,07,07,14,16,20.30
2011,07,07,14,17,29.80
2011,07,07,14,18,23.90
2011,07,07,14,19,21.30
2011,07,07,14,20,22.30
2011,07,07,14,21,19.20
2011,07,07,14,22,17.30
2011,07,07,14,23,14.50
2011,07,07,14,24,24.60
2011,07,07,14,25,16.80
2011,07,07,14,26,22.60
2011,07,07,14,27,20.10
2011,07,07,14,28,16.80
2011,07,07,14,29,15.70
2011,07,07,14,30,16.60
2011,07,07,14,31,21.70
2011,07,07,14,32,21.10
2011,07,07,14,33,18.30
2011,07,07,14,34,23.90
2011,07,07,14,35,25.50
2011,07,07,14,36,25.20
2011,07,07,14,37,25.00
2011,07,07,14,38,22.20
2011,07,07,14,39,20.70
2011,07,07,14,40,20.80
2011,07,07,14,41,21.40
2011,07,07,14,42,22.20
2011,07,07,14,43,22.40
2011,07,07,14,44,18.20
2011,07,07,14,45,18.60
2011,07,07,14,46,23.30
2011,07,07,14,47,22.30
2011,07,07,14,48,29.20
2011,07,07,14,49,26.60
2011,07,07,14,50,18.60
2011,07,07,14,51,21.30
2011,07,07,14,52,20.80
2011,07,07,14,53,23.50
2011,07,07,14,54,18.10
2011,07,07,14,55,22.50
2011,07,07,14,56,23.00
2011,07,07,14,57,19.20
2011,07,07,14,58,20.90
2011,07,07,14,59,13.20
2011,07,07,15,00,16.60
2011,07,07,15,01,10.40
2011,07,07,15,02,11.30
2011,07,07,15,03,14.60
2011,07,07,15,04,15.00
2011,07,07,15,05,14.50
2011,07,07,15,06,13.80
2011,07,07,15,07,14.50
2011,07,07,15,08,6.80
2011,07,07,15,09,8.80
2011,07,07,15,10,20.00
2011,07,07,15,11,18.10
2011,07,07,15,12,22.70
2011,07,07,15,13,6.80
2011,07,07,15,14,24.20
2011,07,07,15,15,18.20
2011,07,07,15,16,15.20
2011,07,07,15,17,21.60
2011,07,07,15,18,27.60
2011,07,07,15,19,19.80
2011,07,07,15,20,24.00
2011,07,07,15,21,22.20
2011,07,07,15,22,18.80
2011,07,07,15,23,14.60
2011,07,07,15,24,21.90
2011,07,07,15,25,23.90
2011,07,07,15,26,19.90
2011,07,07,15,27,23.00
2011,07,07,15,28,14.70
2011,07,07,15,29,13.50
2011,07,07,15,30,19.40
2011,07,07,15,31,14.90
2011,07,07,15,32,25.00
2011,07,07,15,33,17.80
2011,07,07,15,34,20.40
2011,07,07,15,35,23.80
2011,07,07,15,36,29.70
2011,07,07,15,37,27.40
2011,07,07,15,38,26.10
2011,07,07,15,39,27.90
2011,07,07,15,40,22.20
2011,07,07,15,41,24.40
2011,07,07,15,42,26.60
2011,07,07,15,43,22.70
2011,07,07,15,44,26.70
2011,07,07,15,45,25.70
2011,07,07,15,46,23.60
2011,07,07,15,47,22.90
2011,07,07,15,48,21.90
2011,07,07,15,49,25.40
2011,07,07,15,50,25.40
2011,07,07,15,51,25.50
2011,07,07,15,52,23.30
2011,07,07,15,53,21.90
2011,07,07,15,54,27.00
2011,07,07,15,55,29.50
2011,07,07,15,56,30.80
2011,07,07,15,57,24.50
2011,07,07,15,58,24.60
2011,07,07,15,59,32.10
2011,07,07,16,00,26.80
2011,07,07,16,01,26.60
2011,07,07,16,02,30.10
2011,07,07,16,03,31.70
2011,07,07,16,04,28.70
2011,07,07,16,05,24.90
2011,07,07,16,06,29.80
2011,07,07,16,07,26.10
2011,07,07,16,08,28.60
2011,07,07,16,09,24.40
2011,07,07,16,10,30.10
2011,07,07,16,11,22.80
2011,07,07,16,12,30.00
2011,07,07,16,13,28.10
2011,07,07,16,14,29.90
2011,07,07,16,15,23.70
2011,07,07,16,16,24.10
2011,07,07,16,17,18.00
2011,07,07,16,18,23.80
2011,07,07,16,19,31.20
2011,07,07,16,20,31.20
2011,07,07,16,21,28.30
2011,07,07,16,22,31.10
2011,07,07,16,23,23.90
2011,07,07,16,24,24.10
2011,07,07,16,25,24.30
2011,07,07,16,26,30.00
2011,07,07,16,27,24.40
2011,07,07,16,28,25.10
2011,07,07,16,29,23.60
2011,07,07,16,30,20.70
2011,07,07,16,31,24.20
2011,07,07,16,32,23.40
2011,07,07,16,33,26.80
2011,07,07,16,34,31.70
2011,07,07,16,35,23.10
2011,07,07,16,36,22.30
2011,07,07,16,37,29.40
2011,07,07,16,38,23.70
2011,07,07,16,39,18.80
2011,07,07,16,40,19.60
2011,07,07,16,41,22.50
2011,07,07,16,42,23.70
2011,07,07,16,43,30.20
2011,07,07,16,44,23.10
2011,07,07,16,45,27.70
2011,07,07,16,46,30.20
2011,07,07,16,47,24.00
2011,07,07,16,48,25.90
2011,07,07,16,49,22.10
2011,07,07,16,50,18.90
2011,07,07,16,51,23.50
2011,07,07,16,52,24.70
2011,07,07,16,53,26.00
2011,07,07,16,54,23.40
2011,07,07,16,55,20.00
2011,07,07,16,56,22.40
2011,07,07,16,57,18.30
2011,07,07,16,58,18.00
2011,07,07,16,59,24.30
2011,07,07,17,00,24.30
2011,07,07,17,01,25.70
2011,07,07,17,02,21.30
2011,07,07,17,03,26.40
2011,07,07,17,04,27.00
2011,07,07,17,05,24.40
2011,07,07,17,06,25.00
2011,07,07,17,07,23.80
2011,07,07,17,08,22.40
2011,07,07,17,09,24.80
2011,07,07,17,10,21.80
2011,07,07,17,11,23.70
2011,07,07,17,12,32.00
2011,07,07,17,13,27.30
2011,07,07,17,14,27.50
2011,07,07,17,15,25.50
2011,07,07,17,16,20.90
2011,07,07,17,17,17.50
2011,07,07,17,18,18.50
2011,07,07,17,19,19.20
2011,07,07,17,20,19.30
2011,07,07,17,21,18.40
2011,07,07,17,22,20.80
2011,07,07,17,23,25.80
2011,07,07,17,24,28.00
2011,07,07,17,25,24.10
2011,07,07,17,26,23.60
2011,07,07,17,27,19.20
2011,07,07,17,28,18.60
2011,07,07,17,29,20.00
2011,07,07,17,30,20.40
2011,07,07,17,31,10.70
2011,07,07,17,32,15.20
2011,07,07,17,33,14.50
2011,07,07,17,34,24.80
2011,07,07,17,35,21.30
2011,07,07,17,36,14.20
2011,07,07,17,37,13.90
2011,07,07,17,38,17.10
2011,07,07,17,39,23.00
2011,07,07,17,40,23.90
2011,07,07,17,41,28.50
2011,07,07,17,42,24.70
2011,07,07,17,43,24.80
2011,07,07,17,44,37.10